[[{"header":{"parameterUnit":"m.s-1","parameterCategory":1,"la1":30.2991,"la2":30.254,"lo1":-89.0895,"lo2":-89.0444,"dy":0.0017,"dx":0.0017,"nx":28,"ny":28,"refTime":"2024-06-13T09:00:00:Z","depth":0,"parameterNumber":2,"parameterNumberName":"U-component_of_WINDS"},"data":[0,0,0,0,0,0,0,0,0,0,0,0,0,0,0,0,0,0,0,0,0,0,0,0,0,0,0,0,0,0,0,0,0,0,0,0,0,0,0,0,0,0,0,0,0,0,0,0,0,0,0,0,0,0,0,0,0,0,1.4558,1.4557,0,1.45,1.45,1.4499,1.4393,1.4391,1.4389,1.4387,1.4331,1.4331,1.4332,0,0,0,0,0,0,0,0,0,0,0,0,0,1.4579,1.4579,1.4558,1.4557,1.4556,1.45,1.45,1.4499,1.4393,1.4391,1.4388,1.4386,1.4331,1.4331,1.4332,0,0,0,0,0,0,0,0,0,0,0,0,0,1.455,1.4579,1.4558,1.4497,1.4491,1.4501,1.45,1.4499,1.4394,1.4391,1.4388,1.4385,1.4331,1.4331,1.4332,1.4397,0,0,1.4334,1.4334,0,0,0,0,0,0,0,0,1.4552,1.455,1.4507,1.4501,1.4494,1.4451,1.4486,1.4465,1.4395,1.4431,1.4387,1.4383,1.4373,1.437,1.4366,1.4394,1.4392,1.4334,1.4334,1.4334,1.4334,0,0,0,0,0,0,0,1.4554,1.4552,1.4535,1.4506,1.4499,1.4473,1.4466,1.4482,1.442,1.4427,1.442,1.4414,1.4369,1.4366,1.4364,1.4391,1.4334,1.4334,1.4335,1.4335,1.447,1.4473,0,0,0,0,0,0,1.4565,1.4554,1.4537,1.4533,1.4516,1.4475,1.4467,1.4468,1.442,1.4409,1.4417,1.4409,1.4366,1.4364,1.4362,1.4435,1.4334,1.4335,1.4335,1.4467,1.4471,1.4474,0,0,0,0,0,0,1.4566,1.4564,1.4539,1.4541,1.4536,1.4478,1.448,1.4468,1.4465,1.4412,1.44,1.4424,1.4364,1.4361,1.4389,1.4432,1.4335,1.4336,1.4463,1.4468,1.4472,1.4583,0,0,0,0,0,0,1.4567,1.4565,1.4589,1.4543,1.4537,1.4567,1.4483,1.4469,1.4466,1.4456,1.4416,1.4406,1.4361,1.4389,1.439,1.4431,1.4336,1.4459,1.4465,1.4471,1.4575,1.4591,1.4604,0,0,0,0,0,1.4568,1.4623,1.4591,1.4589,1.4565,1.457,1.4566,1.4513,1.447,1.4493,1.4459,1.4407,1.4427,1.4392,1.4392,1.4435,1.4456,1.4463,1.447,1.4568,1.4588,1.4604,0,0,0,0,0,0,1.4676,1.4616,1.4579,1.4621,1.4601,1.4552,1.458,1.4535,1.4527,1.4518,1.4453,1.4445,1.4481,1.446,1.4423,1.4495,1.4433,1.4441,1.4508,1.4525,1.454,1.4544,1.4337,0,0,0,0,0,1.4705,1.4713,1.466,1.4702,1.4693,1.4639,1.4639,1.4599,1.4576,1.4568,1.4536,1.4516,1.4518,1.452,1.4519,1.4571,1.4561,1.46,1.4615,1.4627,1.4635,1.4661,1.4678,1.4498,1.4498,1.4498,0,0,1.4764,1.4732,1.4741,1.4723,1.4703,1.4713,1.4632,1.4647,1.4655,1.457,1.4594,1.457,1.4544,1.4585,1.4601,1.4569,1.4682,1.4636,1.4647,1.4647,1.467,1.4688,1.4703,1.4503,1.4502,1.4501,0,0,1.4878,1.4854,1.4887,1.4868,1.4839,1.4802,1.481,1.4767,1.4748,1.4771,1.4708,1.4716,1.472,1.4704,1.4697,1.4805,1.4757,1.4806,1.4883,1.4909,1.4924,1.4936,1.4975,1.4989,1.4814,1.4814,1.4814,0,1.4956,1.4969,1.4909,1.4928,1.4922,1.4845,1.4878,1.4863,1.4835,1.4833,1.4797,1.48,1.4777,1.4813,1.484,1.4836,1.4843,1.4811,1.4926,1.4938,1.4948,1.4985,1.5,1.482,1.482,1.4819,1.4818,0,1.5066,1.5076,1.5106,1.508,1.5077,1.5103,1.5048,1.5052,1.5013,1.4981,1.5005,1.4975,1.4966,1.4972,1.4934,1.5003,1.4983,1.4938,1.4874,1.4973,1.5006,1.5019,1.4829,1.4827,1.4825,1.4824,0,0,1.5247,1.5188,1.52,1.5187,1.5149,1.5156,1.5178,1.5169,1.5174,1.5158,1.5175,1.518,1.5138,1.5129,1.5089,1.5112,1.52,1.5063,1.5062,1.509,1.5275,1.531,1.5327,1.5168,1.5171,1.5173,1.5277,0,1.5353,1.5387,1.5334,1.5381,1.539,1.5317,1.5337,1.5316,1.5286,1.529,1.5257,1.5262,1.5205,1.5199,1.5219,1.5186,1.5237,1.5177,1.5185,1.5186,1.5194,1.5344,1.5381,1.5481,1.529,1.5292,1.5293,0,1.5481,1.547,1.5518,1.5477,1.5478,1.5497,1.5484,1.5488,1.5463,1.544,1.5431,1.5382,1.5402,1.534,1.5367,1.5328,1.5328,1.5312,1.5315,1.5314,1.5246,1.5348,1.5511,1.5527,1.5313,1.5311,1.531,0,1.5609,1.5606,1.5634,1.5625,1.5578,1.5593,1.5574,1.5546,1.5544,1.5533,1.5531,1.5523,1.5519,1.5514,1.5465,1.5424,1.5498,1.5432,1.548,1.5481,1.5499,1.5499,1.5666,1.5499,1.5499,1.5498,1.5498,0,1.5733,1.5765,1.5691,1.5708,1.5742,1.5681,1.5717,1.5691,1.5666,1.5678,1.5614,1.5627,1.5561,1.5567,1.5529,1.5557,1.5556,1.5538,1.5527,1.5544,1.5546,1.5543,1.5535,1.5502,1.5501,1.5501,1.55,0,1.5882,1.5833,1.5859,1.5812,1.5801,1.5828,1.5788,1.5802,1.5768,1.5784,1.5784,1.5731,1.5734,1.5684,1.5678,1.5652,1.5698,1.5675,1.5707,1.5699,1.575,1.5746,1.5922,1.5942,1.5762,1.5764,1.5765,0,1.5965,1.5987,1.5943,1.5945,1.5929,1.5935,1.5932,1.5873,1.5873,1.5846,1.5864,1.5862,1.5857,1.5866,1.5827,1.5822,1.5799,1.586,1.5798,1.5813,1.58,1.58,1.5802,1.5874,1.5876,1.5878,1.588,0,1.6117,1.6091,1.6089,1.6079,1.6077,1.6066,1.6052,1.6058,1.5994,1.5997,1.5999,1.5995,1.5988,1.5987,1.5975,1.5956,1.5908,1.59,1.591,1.5928,1.5945,1.5937,1.5743,1.5896,1.5894,1.5893,1.5892,1.5892,1.6235,1.6252,1.6223,1.6223,1.6205,1.6193,1.6204,1.6171,1.6172,1.6161,1.6126,1.6135,1.6109,1.6087,1.6073,1.6079,1.6049,1.6064,1.6068,1.6073,1.6083,1.5944,1.6076,1.6076,1.6075,1.6075,1.6074,0,1.6384,1.6361,1.6362,1.6343,1.6343,1.6297,1.6278,1.6281,1.6289,1.6269,1.6265,1.6268,1.6267,1.6228,1.6222,1.6234,1.6212,1.6235,1.6233,1.623,1.611,1.6101,1.6253,1.6253,1.6253,1.6253,1.6253,1.6253,1.6461,1.6487,1.6459,1.6476,1.6453,1.646,1.6454,1.6442,1.6426,1.6432,1.643,1.6404,1.6377,1.6368,1.6365,1.6354,1.6355,1.6385,1.6367,1.6256,1.6238,1.6222,1.6213,1.6386,1.6386,1.6486,1.6487,1.6487]},{"header":{"parameterUnit":"m.s-1","parameterCategory":1,"la1":30.2991,"la2":30.254,"lo1":-89.0895,"lo2":-89.0444,"dy":0.0017,"dx":0.0017,"nx":28,"ny":28,"refTime":"2024-06-13T09:00:00:Z","depth":0,"parameterNumber":3,"parameterNumberName":"V-component_of_WINDS"},"data":[0,0,0,0,0,0,0,0,0,0,0,0,0,0,0,0,0,0,0,0,0,0,0,0,0,0,0,0,0,0,0,0,0,0,0,0,0,0,0,0,0,0,0,0,0,0,0,0,0,0,0,0,0,0,0,0,0,0,-2.9742,-2.9743,0,-2.98,-2.98,-2.9801,-2.9759,-2.9757,-2.9755,-2.9754,-2.9812,-2.9815,-2.9818,0,0,0,0,0,0,0,0,0,0,0,0,0,-2.9595,-2.9598,-2.9742,-2.9743,-2.9744,-2.98,-2.98,-2.9801,-2.9759,-2.9757,-2.9755,-2.9753,-2.9811,-2.9815,-2.9819,0,0,0,0,0,0,0,0,0,0,0,0,0,-2.9656,-2.9599,-2.9742,-2.9729,-2.9729,-2.9799,-2.98,-2.9801,-2.976,-2.9757,-2.9754,-2.9752,-2.9809,-2.9814,-2.9819,-2.9905,0,0,-2.9834,-2.9836,0,0,0,0,0,0,0,0,-2.9653,-2.9662,-2.9731,-2.973,-2.973,-2.9769,-2.977,-2.9836,-2.976,-2.9748,-2.9753,-2.975,-2.98,-2.9805,-2.9822,-2.9908,-2.991,-2.9835,-2.9838,-2.984,-2.9841,0,0,0,0,0,0,0,-2.9649,-2.9659,-2.9765,-2.9732,-2.9731,-2.9721,-2.9726,-2.9782,-2.9789,-2.9749,-2.9746,-2.9753,-2.9799,-2.9818,-2.9823,-2.9911,-2.9834,-2.9839,-2.9842,-2.9844,-3.0069,-3.0072,0,0,0,0,0,0,-2.9646,-2.9656,-2.9763,-2.9767,-2.9684,-2.9726,-2.9732,-2.9759,-2.9788,-2.979,-2.9756,-2.9751,-2.9811,-2.9818,-2.9825,-2.9927,-2.984,-2.9844,-2.9847,-3.0066,-3.007,-3.0073,0,0,0,0,0,0,-2.9643,-2.9656,-2.9761,-2.971,-2.9723,-2.9731,-2.9762,-2.9762,-2.978,-2.9793,-2.9794,-2.9774,-2.9809,-2.9818,-2.9885,-2.9929,-2.9846,-2.9851,-3.0063,-3.0067,-3.0072,-3.0133,0,0,0,0,0,0,-2.9639,-2.9655,-2.9688,-2.9712,-2.9726,-2.982,-2.9765,-2.9765,-2.9789,-2.9784,-2.981,-2.9812,-2.9807,-2.9878,-2.989,-2.9934,-2.9855,-3.0059,-3.0065,-3.007,-3.0127,-3.0139,-3.0149,0,0,0,0,0,-2.9634,-2.9703,-2.969,-2.9703,-2.9767,-2.9823,-2.9831,-2.9825,-2.9793,-2.9826,-2.9834,-2.9811,-2.9922,-2.9886,-2.9899,-2.9945,-3.0056,-3.0063,-3.007,-3.0122,-3.0136,-3.0149,0,0,0,0,0,0,-2.9684,-2.9706,-2.9691,-2.977,-2.9795,-2.9816,-2.9857,-2.984,-2.9875,-2.9868,-2.9859,-2.9865,-2.9935,-2.9947,-2.9905,-3.0029,-2.9984,-2.9994,-3.0019,-3.0033,-3.0044,-3.004,-2.9859,0,0,0,0,0,-2.9704,-2.9748,-2.9764,-2.9832,-2.9845,-2.9849,-2.9873,-2.9866,-2.9891,-2.9902,-2.9915,-2.994,-2.998,-3.0007,-3.0045,-3.0128,-3.0133,-3.0166,-3.0177,-3.0186,-3.0195,-3.0239,-3.0254,-3.0096,-3.0096,-3.0096,0,0,-2.9746,-2.9763,-2.9792,-2.9843,-2.9861,-2.9906,-2.9858,-2.9908,-2.9941,-2.9909,-2.9973,-2.9984,-3.0011,-3.0087,-3.012,-3.0098,-3.024,-3.0195,-3.0202,-3.0206,-3.0248,-3.0263,-3.0276,-3.01,-3.01,-3.0099,0,0,-2.9846,-2.9864,-2.9922,-2.9941,-2.997,-2.9972,-2.9986,-3.001,-3.0015,-3.008,-3.0056,-3.0096,-3.0166,-3.0186,-3.0206,-3.0313,-3.0293,-3.0326,-3.0384,-3.0427,-3.044,-3.0451,-3.0489,-3.0503,-3.0335,-3.0335,-3.0335,0,-2.9895,-2.9962,-2.9954,-3.0006,-3.0029,-3.0002,-3.006,-3.008,-3.0119,-3.0136,-3.011,-3.0198,-3.0214,-3.0294,-3.032,-3.0337,-3.0352,-3.0323,-3.0439,-3.045,-3.046,-3.0496,-3.0511,-3.0339,-3.0338,-3.0338,-3.0337,0,-3.002,-3.0067,-3.0111,-3.015,-3.0178,-3.0233,-3.0233,-3.0262,-3.0253,-3.0258,-3.0323,-3.0342,-3.0384,-3.0402,-3.0393,-3.0481,-3.0466,-3.044,-3.0394,-3.0479,-3.0513,-3.0527,-3.0344,-3.0343,-3.0341,-3.0341,0,0,-3.0153,-3.0187,-3.0203,-3.0221,-3.025,-3.0286,-3.034,-3.038,-3.0406,-3.0434,-3.0478,-3.0538,-3.0514,-3.0537,-3.053,-3.0568,-3.0652,-3.0537,-3.0538,-3.0558,-3.0749,-3.0768,-3.0785,-3.0639,-3.0642,-3.0644,-3.0747,0,-3.0254,-3.0348,-3.0342,-3.043,-3.0474,-3.0449,-3.0495,-3.0518,-3.0524,-3.0562,-3.0568,-3.0611,-3.0576,-3.0589,-3.0626,-3.0634,-3.069,-3.0627,-3.068,-3.0682,-3.0674,-3.0802,-3.0823,-3.0919,-3.076,-3.0762,-3.0764,0,-3.0385,-3.0418,-3.051,-3.0533,-3.0551,-3.0593,-3.063,-3.0666,-3.0691,-3.0693,-3.0718,-3.0705,-3.0759,-3.0712,-3.0786,-3.0743,-3.0765,-3.0772,-3.0775,-3.078,-3.0728,-3.081,-3.095,-3.0964,-3.0785,-3.0783,-3.0781,0,-3.0472,-3.054,-3.0603,-3.0619,-3.0647,-3.0678,-3.0691,-3.0713,-3.0738,-3.077,-3.0786,-3.0824,-3.0845,-3.0874,-3.0872,-3.0838,-3.0947,-3.09,-3.0949,-3.095,-3.0973,-3.0972,-3.1118,-3.0988,-3.0988,-3.0987,-3.0987,0,-3.0586,-3.0643,-3.0643,-3.0682,-3.0746,-3.0739,-3.0802,-3.0812,-3.0832,-3.0873,-3.0853,-3.0892,-3.0886,-3.0925,-3.0923,-3.0984,-3.0994,-3.0996,-3.0995,-3.0998,-3.0998,-3.1012,-3.1005,-3.0991,-3.099,-3.099,-3.0989,0,-3.0694,-3.0696,-3.0764,-3.0786,-3.0792,-3.0838,-3.0856,-3.0893,-3.0898,-3.0949,-3.0961,-3.0968,-3.1012,-3.1012,-3.1063,-3.1062,-3.1137,-3.1128,-3.1128,-3.1127,-3.1176,-3.1171,-3.1336,-3.1358,-3.1214,-3.1215,-3.1216,0,-3.0766,-3.081,-3.0836,-3.0862,-3.0877,-3.0919,-3.0944,-3.0939,-3.0965,-3.0998,-3.1031,-3.1074,-3.1107,-3.1179,-3.1189,-3.1227,-3.1219,-3.1274,-3.1225,-3.1226,-3.122,-3.1217,-3.1221,-3.1284,-3.1286,-3.1287,-3.1288,0,-3.0894,-3.0893,-3.093,-3.0968,-3.0999,-3.1028,-3.1055,-3.1077,-3.1075,-3.1106,-3.1151,-3.1177,-3.1229,-3.1272,-3.1309,-3.1322,-3.1305,-3.1304,-3.1317,-3.132,-3.1319,-3.132,-3.1155,-3.13,-3.1299,-3.1298,-3.1297,-3.1297,-3.0987,-3.1024,-3.1048,-3.109,-3.111,-3.1136,-3.1172,-3.118,-3.1218,-3.126,-3.1254,-3.1305,-3.1329,-3.1377,-3.1394,-3.1433,-3.1413,-3.1433,-3.1438,-3.1443,-3.1448,-3.1313,-3.144,-3.1439,-3.1439,-3.1439,-3.1438,0,-3.1113,-3.1127,-3.1166,-3.1205,-3.1238,-3.1219,-3.1247,-3.1276,-3.1321,-3.1345,-3.1379,-3.1431,-3.1472,-3.1484,-3.1524,-3.1553,-3.1546,-3.1563,-3.1561,-3.1564,-3.1463,-3.1448,-3.1568,-3.1568,-3.1568,-3.1568,-3.1568,-3.1568,-3.1183,-3.1245,-3.1247,-3.1319,-3.1333,-3.1382,-3.14,-3.1424,-3.1443,-3.1502,-3.1536,-3.1544,-3.1563,-3.1604,-3.1641,-3.1644,-3.1659,-3.168,-3.1679,-3.1585,-3.1572,-3.1559,-3.1544,-3.1683,-3.1684,-3.1777,-3.1778,-3.1779]}]]